User: anonymous   Login
Location: Unspecified
(0.0000°N, 0.0000°E)
Time: 05:35:20
(UTC+02:00)
Language:

SWIFT - Orbit

View from above orbital plane
View from above orbital plane
View from above satellite
View from above satellite

Ground track
Ground track

The orbit data is extracted from the following two-line orbital elements,

1 28485U 04047A   16244.59817275  .00001424  00000-0  70153-4 0  9994
2 28485  20.5576 358.6134 0011402 180.2539 179.7890 15.03281509644560
Epoch (UTC): 31 August 2016 14:21:22
Eccentricity: 0.0011402
inclination: 20.5576°
perigee height: 549 km
apogee height: 564 km
right ascension of ascending node: 358.6134°
argument of perigee: 180.2539°
revolutions per day: 15.03281509
mean anomaly at epoch: 179.7890°
orbit number at epoch: 64456

The dashed part of the orbit path shows where the satellite is in the earth's shadow,  

DLR